TimeCST,TemperatureF,Dew PointF,Humidity,Sea Level PressureIn,VisibilityMPH,Wind Direction,Wind SpeedMPH,Gust SpeedMPH,PrecipitationIn,Events,Conditions,WindDirDegrees,DateUTC
12:15 AM,10.4,10.4,100,29.59,10.0,South,9.2,-,N/A,,Overcast,170,2013-01-19 06:15:00
12:35 AM,10.4,8.6,92,29.58,10.0,South,11.5,-,N/A,,Scattered Clouds,180,2013-01-19 06:35:00
12:55 AM,10.4,8.6,92,29.57,6.0,South,10.4,-,N/A,,Mostly Cloudy,190,2013-01-19 06:55:00
1:15 AM,10.4,10.4,100,29.57,3.0,SSW,12.7,-,N/A,,Overcast,200,2013-01-19 07:15:00
1:35 AM,10.4,8.6,92,29.57,8.0,SSW,16.1,-,N/A,,Scattered Clouds,210,2013-01-19 07:35:00
1:55 AM,10.4,10.4,100,29.57,5.0,SW,15.0,-,N/A,,Partly Cloudy,220,2013-01-19 07:55:00
2:15 AM,12.2,10.4,92,29.57,8.0,SW,18.4,-,N/A,,Partly Cloudy,220,2013-01-19 08:15:00
2:35 AM,14.0,12.2,93,29.57,4.0,WSW,19.6,-,N/A,,Partly Cloudy,240,2013-01-19 08:35:00
2:55 AM,14.0,12.2,93,29.57,7.0,WSW,15.0,-,N/A,,Clear,250,2013-01-19 08:55:00
3:15 AM,15.8,15.8,100,29.59,7.0,West,15.0,-,N/A,,Clear,270,2013-01-19 09:15:00
3:35 AM,15.8,15.8,100,29.59,10.0,WNW,12.7,-,N/A,,Clear,290,2013-01-19 09:35:00
3:55 AM,19.4,19.4,100,29.61,10.0,WNW,17.3,-,N/A,,Mostly Cloudy,290,2013-01-19 09:55:00
4:15 AM,19.4,19.4,100,29.61,9.0,NW,17.3,24.2,N/A,,Overcast,310,2013-01-19 10:15:00
4:35 AM,19.4,19.4,100,29.61,6.0,NW,24.2,28.8,N/A,,Overcast,310,2013-01-19 10:35:00
4:55 AM,17.6,15.8,93,29.63,3.0,NW,20.7,34.5,N/A,,Overcast,320,2013-01-19 10:55:00
5:15 AM,14.0,14.0,100,29.64,3.0,NNW,24.2,28.8,N/A,,Overcast,330,2013-01-19 11:15:00
5:35 AM,12.2,10.4,92,29.66,3.0,NW,21.9,28.8,N/A,Snow,Light Snow,320,2013-01-19 11:35:00
5:55 AM,10.4,8.6,92,29.68,2.0,NNW,27.6,33.4,N/A,Snow,Light Snow,330,2013-01-19 11:55:00
7:15 AM,5.0,1.4,85,29.75,1.2,NNW,31.1,35.7,N/A,Snow,Light Snow,340,2013-01-19 13:15:00
8:15 AM,3.2,-0.4,85,29.79,1.0,NNW,24.2,-,N/A,,Overcast,330,2013-01-19 14:15:00
8:35 AM,3.2,-0.4,85,29.82,2.0,NNW,21.9,32.2,N/A,,Overcast,340,2013-01-19 14:35:00
9:55 AM,1.4,-0.4,92,29.88,0.2,NW,29.9,40.3,N/A,Rain,Freezing Rain,320,2013-01-19 15:55:00
10:15 AM,1.4,-2.2,85,29.90,0.2,NNW,25.3,35.7,N/A,Rain,Freezing Rain,340,2013-01-19 16:15:00
10:35 AM,-0.4,-2.2,92,29.92,0.5,NNW,25.3,33.4,0.01,Snow,Snow,340,2013-01-19 16:35:00
10:55 AM,-0.4,-4.0,85,29.94,0.8,NNW,24.2,31.1,0.01,Rain,Freezing Rain,340,2013-01-19 16:55:00
11:15 AM,-0.4,-5.8,78,29.96,0.8,NNW,25.3,34.5,N/A,,Haze,340,2013-01-19 17:15:00
11:35 AM,-2.2,-7.6,78,29.97,0.2,NNW,28.8,39.1,N/A,,Haze,330,2013-01-19 17:35:00
11:55 AM,-2.2,-7.6,78,29.98,0.2,NNW,28.8,39.1,N/A,Rain,Freezing Rain,340,2013-01-19 17:55:00
12:15 PM,-2.2,-7.6,78,29.98,0.2,NNW,32.2,39.1,N/A,Rain,Freezing Rain,330,2013-01-19 18:15:00
12:35 PM,-2.2,-7.6,78,29.99,0.2,NNW,35.7,41.4,N/A,Rain,Freezing Rain,330,2013-01-19 18:35:00
12:55 PM,-2.2,-7.6,78,30.01,0.2,NNW,34.5,40.3,0.02,Rain,Freezing Rain,330,2013-01-19 18:55:00
1:15 PM,-2.2,-7.6,78,30.02,0.2,NNW,38.0,44.9,N/A,Rain,Freezing Rain,330,2013-01-19 19:15:00
1:35 PM,-2.2,-7.6,78,30.04,0.2,NNW,31.1,41.4,0.02,Rain,Freezing Rain,330,2013-01-19 19:35:00
1:55 PM,-2.2,-7.6,78,30.06,0.2,NNW,31.1,34.5,0.02,Rain,Freezing Rain,340,2013-01-19 19:55:00
2:15 PM,-2.2,-7.6,78,30.08,0.2,NNW,28.8,39.1,N/A,Rain,Freezing Rain,340,2013-01-19 20:15:00
2:35 PM,-4.0,-7.6,85,30.09,0.5,NNW,28.8,34.5,N/A,Fog,Light Freezing Fog,330,2013-01-19 20:35:00
2:55 PM,-2.2,-7.6,78,30.11,0.5,NNW,28.8,36.8,N/A,,Haze,330,2013-01-19 20:55:00
3:15 PM,-2.2,-9.4,71,30.14,0.8,NNW,33.4,40.3,N/A,,Haze,330,2013-01-19 21:15:00
3:35 PM,-2.2,-9.4,71,30.15,1.8,NNW,25.3,32.2,N/A,,Haze,330,2013-01-19 21:35:00
3:55 PM,-4.0,-9.4,78,30.17,0.8,NNW,25.3,32.2,N/A,,Haze,330,2013-01-19 21:55:00
4:15 PM,-4.0,-9.4,78,30.19,4.0,NNW,20.7,27.6,N/A,,Haze,330,2013-01-19 22:15:00
4:35 PM,-4.0,-9.4,78,30.21,8.0,NNW,20.7,-,N/A,,Partly Cloudy,330,2013-01-19 22:35:00
4:55 PM,-4.0,-11.2,71,30.21,10.0,NNW,16.1,-,N/A,,Clear,330,2013-01-19 22:55:00
5:15 PM,-5.8,-11.2,77,30.22,10.0,NW,19.6,-,N/A,,Clear,320,2013-01-19 23:15:00
5:35 PM,-5.8,-11.2,77,30.22,9.0,NW,19.6,-,N/A,,Clear,320,2013-01-19 23:35:00
5:55 PM,-7.6,-13.0,77,30.23,10.0,NW,18.4,-,N/A,,Clear,320,2013-01-19 23:55:00
6:15 PM,-7.6,-13.0,77,30.24,10.0,NW,20.7,-,N/A,,Clear,320,2013-01-20 00:15:00
6:35 PM,-7.6,-13.0,77,30.24,10.0,NW,18.4,26.5,N/A,,Clear,320,2013-01-20 00:35:00
6:55 PM,-7.6,-13.0,77,30.23,10.0,NNW,20.7,-,N/A,,Clear,330,2013-01-20 00:55:00
7:15 PM,-7.6,-13.0,77,30.24,10.0,NW,15.0,-,N/A,,Clear,320,2013-01-20 01:15:00
7:35 PM,-9.4,-13.0,84,30.24,10.0,NW,15.0,-,N/A,,Clear,320,2013-01-20 01:35:00
7:55 PM,-9.4,-14.8,77,30.24,10.0,NW,13.8,-,N/A,,Clear,320,2013-01-20 01:55:00
8:15 PM,-9.4,-14.8,77,30.25,10.0,NNW,13.8,-,N/A,,Clear,330,2013-01-20 02:15:00
8:35 PM,-11.2,-16.6,77,30.25,10.0,NW,11.5,-,N/A,,Clear,320,2013-01-20 02:35:00
8:55 PM,-11.2,-16.6,77,30.25,10.0,NW,12.7,-,N/A,,Clear,320,2013-01-20 02:55:00
9:15 PM,-11.2,-16.6,77,30.25,10.0,NW,12.7,-,N/A,,Clear,310,2013-01-20 03:15:00
9:35 PM,-11.2,-16.6,77,30.25,10.0,NW,10.4,-,N/A,,Clear,320,2013-01-20 03:35:00
9:55 PM,-9999,-9999,N/A,30.26,10.0,NW,9.2,-,N/A,,Clear,310,2013-01-20 03:55:00
10:15 PM,-13.0,-18.4,77,30.25,10.0,WNW,9.2,-,N/A,,Clear,300,2013-01-20 04:15:00
10:35 PM,-14.8,-20.2,77,30.26,10.0,WNW,8.1,-,N/A,,Clear,290,2013-01-20 04:35:00
10:55 PM,-14.8,-20.2,77,30.25,10.0,WNW,9.2,-,N/A,,Clear,290,2013-01-20 04:55:00
11:15 PM,-16.6,-22.0,76,30.26,10.0,WNW,8.1,-,N/A,,Clear,290,2013-01-20 05:15:00
11:35 PM,-16.6,-22.0,76,30.24,10.0,West,9.2,-,N/A,,Clear,280,2013-01-20 05:35:00
11:55 PM,-16.6,-20.2,84,30.24,10.0,West,10.4,-,N/A,,Clear,280,2013-01-20 05:55:00